Weather History for Romeoville, IL

Change the Weather History Date:

Tuesday, February 5, 2013

  Actual Average Record
Temperature  
Mean Temperature 21 °F 25 °F  
Max Temperature 31 °F 32 °F 56 °F (2005)
Min Temperature 10 °F 17 °F -10 °F (2007)
Degree Days  
Heating Degree Days 44 40  
Month to date heating degree days 242 203  
Since 1 July heating degree days 3620 3884  
Cooling Degree Days 0 0  
Month to date cooling degree days 0 0  
Year to date cooling degree days 0 0  
Moisture  
Dew Point 21 °F    
Average Humidity 88    
Maximum Humidity 100    
Minimum Humidity 71    
Precipitation  
Precipitation T in 0.06 in 0.34 in (2008)
Month to date precipitation 0.15 0.28  
Year to date precipitation 3.51 2.21  
Snow  
Snow 0.20 in 0.30 in 0.00 in (2004)
Month to date snowfall 3.6 1.4  
Since 1 July snowfall 6.1 22.4  
Snow Depth 0.00 in    
Sea Level Pressure  
Sea Level Pressure 29.91 in    
Wind  
Wind Speed 7 mph (West)    
Max Wind Speed 18 mph    
Max Gust Speed 28 mph    
Visibility 7 miles    
Events Rain , Snow    
T = Trace of Precipitation, MM = Missing Value Source: NWS Daily Summary

Daily Weather History Graph

Daily Weather History Graph

Search for Another Location

Airport:

Trip Planner

Search our weather history database for the weather conditions in past years. The results will help you decide how hot, cold, wet, or windy it might be!

Date:

Astronomy

Feb. 05, 2013 Rise Set
Actual Time 6:59 AM CST 5:13 PM CST
Civil Twilight 6:30 AM CST 5:42 PM CST
Nautical Twilight 5:57 AM CST 6:15 PM CST
Astronomical Twilight 5:25 AM CST 6:48 PM CST
Moon 2:42 AM CST (2/5) 12:29 PM CST (2/5)
Length of Visible Light 11h 12m
Length of Day
10h 13m
Waning Crescent, 26% of the Moon is Illuminated
Feb 5
Waning Crescent
Feb 10
New
Feb 17
First Quarter
Feb 25
Full
Mar 4
Last Quarter

Hourly Weather History & Observations

Time (CST) Temp. Windchill Dew Point Humidity Pressure Visibility Wind Dir Wind Speed Gust Speed Precip Events Conditions
12:15 AM 13.5 °F 4.4 °F 11.5 °F 92% 29.94 in 10.0 mi North 5.8 mph - N/A   Clear
12:35 AM 14.0 °F 6.5 °F 12.2 °F 93% 29.93 in 10.0 mi NNE 4.6 mph - N/A   Clear
12:55 AM 14.0 °F - 11.5 °F 90% 29.93 in 10.0 mi Calm Calm - N/A   Clear
1:15 AM 13.6 °F - 10.9 °F 89% 29.94 in 10.0 mi Calm Calm - N/A   Scattered Clouds
1:35 AM 14.2 °F - 11.8 °F 90% 29.93 in 10.0 mi Calm Calm - N/A   Clear
1:55 AM 14.5 °F - 11.8 °F 89% 29.94 in 10.0 mi Calm Calm - N/A   Clear
2:15 AM 13.8 °F - 11.7 °F 91% 29.93 in 10.0 mi Calm Calm - N/A   Clear
2:35 AM 13.5 °F - 11.8 °F 93% 29.91 in 10.0 mi Calm Calm - N/A   Clear
2:55 AM 12.6 °F - 11.3 °F 95% 29.91 in 7.0 mi Calm Calm - N/A   Clear
3:15 AM 12.9 °F - 11.5 °F 94% 29.90 in 10.0 mi Calm Calm - N/A   Clear
3:35 AM 8.6 °F 0.1 °F 8.6 °F 100% 29.91 in 7.0 mi WSW 4.6 mph - N/A   Clear
3:55 AM 10.8 °F - 9.7 °F 95% 29.90 in 7.0 mi Calm Calm - N/A   Clear
4:15 AM 12.2 °F 4.3 °F 11.3 °F 96% 29.91 in 7.0 mi SW 4.6 mph - N/A   Clear
4:35 AM 11.5 °F 3.5 °F 10.2 °F 95% 29.90 in 7.0 mi SW 4.6 mph - N/A   Clear
4:55 AM 13.5 °F 5.8 °F 12.0 °F 94% 29.90 in 7.0 mi SW 4.6 mph - N/A   Clear
5:15 AM 14.5 °F 7.1 °F 13.1 °F 94% 29.91 in 7.0 mi SW 4.6 mph - N/A   Mostly Cloudy
5:35 AM 14.9 °F 6.1 °F 13.3 °F 93% 29.91 in 7.0 mi SW 5.8 mph - N/A   Overcast
5:55 AM 15.4 °F 8.1 °F 14.9 °F 98% 29.90 in 2.5 mi SW 4.6 mph - N/A   Overcast
6:15 AM 16.2 °F 9.0 °F 15.4 °F 97% 29.90 in 2.0 mi SW 4.6 mph - N/A   Overcast
6:35 AM 16.9 °F 9.8 °F 16.2 °F 97% 29.90 in 3.0 mi SW 4.6 mph - N/A   Overcast
6:55 AM 17.6 °F 9.3 °F 16.7 °F 96% 29.90 in 4.0 mi SW 5.8 mph - N/A Snow Light Snow
7:15 AM 18.0 °F 9.8 °F 16.9 °F 96% 29.88 in 3.0 mi South 5.8 mph - N/A Snow Light Snow
7:35 AM 18.5 °F 9.3 °F 17.6 °F 96% 29.87 in 2.5 mi South 6.9 mph - N/A Snow Light Snow
7:55 AM 19.4 °F 11.5 °F 18.5 °F 96% 29.88 in 3.0 mi South 5.8 mph - N/A Snow Light Snow
8:15 AM 19.4 °F 11.5 °F 18.5 °F 96% 29.88 in 5.0 mi SSW 5.8 mph - N/A   Mostly Cloudy
8:35 AM 21.4 °F 9.7 °F 20.1 °F 95% 29.86 in 5.0 mi South 11.5 mph - N/A   Mostly Cloudy
8:55 AM 22.1 °F 10.6 °F 20.3 °F 93% 29.85 in 7.0 mi SSW 11.5 mph - N/A   Mostly Cloudy
9:15 AM 22.8 °F 11.5 °F 20.8 °F 92% 29.84 in 7.0 mi SSW 11.5 mph - N/A   Scattered Clouds
9:55 AM 24.8 °F 15.3 °F 22.5 °F 91% 29.84 in 7.0 mi SSW 9.2 mph - N/A   Overcast
10:15 AM 26.8 °F 14.1 °F 22.5 °F 84% 29.83 in 10.0 mi SW 17.3 mph - N/A   Overcast
10:35 AM 27.3 °F 15.2 °F 23.0 °F 84% 29.83 in 10.0 mi SW 16.1 mph - N/A   Overcast
10:55 AM 27.5 °F 15.4 °F 23.4 °F 84% 29.83 in 10.0 mi SW 16.1 mph - N/A   Overcast
11:15 AM 27.9 °F 15.9 °F 23.7 °F 84% 29.81 in 7.0 mi SW 16.1 mph - N/A   Overcast
11:35 AM 28.6 °F 16.8 °F 24.4 °F 84% 29.81 in 7.0 mi SW 16.1 mph - N/A   Overcast
11:55 AM 28.8 °F 17.9 °F 24.8 °F 85% 29.81 in 7.0 mi SW 13.8 mph - N/A   Overcast
12:15 PM 29.3 °F 19.1 °F 25.5 °F 86% 29.81 in 5.0 mi WSW 12.7 mph 17.3 mph N/A   Overcast
12:35 PM 29.7 °F 20.1 °F 25.7 °F 85% 29.81 in 7.0 mi WSW 11.5 mph 17.3 mph N/A Rain Light Freezing Rain
12:55 PM 30.2 °F 19.8 °F 26.4 °F 86% 29.80 in 5.0 mi West 13.8 mph - N/A Rain Light Freezing Rain
1:15 PM 31.1 °F 21.9 °F 26.4 °F 83% 29.80 in 7.0 mi West 11.5 mph - N/A   Overcast
1:35 PM 31.1 °F 20.9 °F 26.6 °F 83% 29.80 in 7.0 mi West 13.8 mph - N/A   Overcast
1:55 PM 31.5 °F 20.9 °F 26.4 °F 82% 29.80 in 7.0 mi West 15.0 mph - N/A   Overcast
2:15 PM 31.1 °F 22.4 °F 27.1 °F 85% 29.81 in 2.0 mi WNW 10.4 mph - N/A Snow Light Snow
2:35 PM 30.9 °F 21.2 °F 28.4 °F 90% 29.82 in 1.8 mi WNW 12.7 mph 16.1 mph N/A Snow Light Snow
2:55 PM 31.1 °F 21.9 °F 28.9 °F 92% 29.83 in 1.5 mi West 11.5 mph - N/A Snow Light Snow
3:15 PM 31.1 °F 21.9 °F 28.8 °F 91% 29.83 in 2.5 mi West 11.5 mph - N/A Rain Light Freezing Rain
3:35 PM 31.1 °F 21.4 °F 28.4 °F 90% 29.85 in 4.0 mi WNW 12.7 mph - N/A Rain Light Freezing Rain
3:55 PM 30.9 °F 20.7 °F 28.4 °F 90% 29.86 in 1.5 mi WNW 13.8 mph - N/A Snow Light Snow
4:15 PM 30.4 °F 20.5 °F 27.9 °F 90% 29.86 in 3.0 mi WNW 12.7 mph - N/A   Light Freezing Rain
4:35 PM 30.9 °F 21.7 °F 28.2 °F 90% 29.87 in 4.0 mi WNW 11.5 mph - N/A   Overcast
4:55 PM 30.9 °F 20.7 °F 27.5 °F 87% 29.89 in 5.0 mi NW 13.8 mph - N/A   Overcast
5:15 PM 30.7 °F 18.8 °F 26.4 °F 84% 29.89 in 7.0 mi NW 18.4 mph - N/A   Overcast
5:35 PM 30.2 °F 18.1 °F 25.7 °F 83% 29.91 in 7.0 mi NW 18.4 mph 26.5 mph N/A   Overcast
5:55 PM 29.8 °F 18.0 °F 25.5 °F 84% 29.92 in 10.0 mi NW 17.3 mph 27.6 mph N/A   Overcast
6:15 PM 29.3 °F 18.2 °F 25.3 °F 85% 29.94 in 7.0 mi NW 15.0 mph - N/A   Overcast
6:35 PM 29.1 °F 18.4 °F 24.8 °F 84% 29.96 in 7.0 mi NW 13.8 mph - N/A   Overcast
6:55 PM 28.9 °F 18.6 °F 24.3 °F 83% 29.96 in 10.0 mi NNW 12.7 mph 19.6 mph N/A   Overcast
7:15 PM 29.1 °F 19.4 °F 23.9 °F 81% 29.97 in 10.0 mi NNW 11.5 mph - N/A   Overcast
7:35 PM 30.2 °F 20.8 °F 24.8 °F 80% 29.99 in 10.0 mi NW 11.5 mph 17.3 mph N/A   Overcast
7:55 PM 30.2 °F 20.2 °F 24.8 °F 80% 29.99 in 10.0 mi NNW 12.7 mph 16.1 mph N/A   Overcast
8:15 PM 29.3 °F 20.2 °F 23.9 °F 80% 30.00 in 10.0 mi NNW 10.4 mph - N/A   Overcast
8:35 PM 29.3 °F 23.2 °F 23.9 °F 80% 30.01 in 10.0 mi NNW 5.8 mph - N/A   Overcast
8:55 PM 29.3 °F 24.3 °F 23.9 °F 80% 30.01 in 10.0 mi NNW 4.6 mph - N/A   Overcast
9:15 PM 29.5 °F - 23.9 °F 80% 30.02 in 10.0 mi Calm Calm - N/A   Overcast
9:35 PM 29.5 °F - 23.9 °F 80% 30.02 in 10.0 mi Calm Calm - N/A   Overcast
9:55 PM 29.3 °F 25.6 °F 23.9 °F 80% 30.03 in 10.0 mi WNW 3.5 mph - N/A   Overcast
10:15 PM 29.3 °F 25.6 °F 24.4 °F 82% 30.04 in 10.0 mi WNW 3.5 mph - N/A   Overcast
10:35 PM 29.3 °F 24.3 °F 24.4 °F 82% 30.04 in 10.0 mi West 4.6 mph - N/A   Overcast
10:55 PM 29.5 °F 25.9 °F 24.1 °F 80% 30.04 in 10.0 mi NNW 3.5 mph - N/A   Overcast
11:15 PM 30.0 °F 22.4 °F 23.7 °F 77% 30.06 in 10.0 mi NNW 8.1 mph - N/A   Overcast
11:35 PM 30.0 °F 20.0 °F 21.7 °F 71% 30.07 in 10.0 mi North 12.7 mph - N/A   Overcast
11:55 PM 29.8 °F 22.2 °F 21.4 °F 71% 30.08 in 10.0 mi NW 8.1 mph - N/A   Overcast